TimeEDT,TemperatureF,Dew PointF,Humidity,Sea Level PressureIn,VisibilityMPH,Wind Direction,Wind SpeedMPH,Gust SpeedMPH,PrecipitationIn,Events,Conditions,WindDirDegrees,DateUTC
12:52 AM,54.0,48.0,80,30.30,10.0,SW,4.6,-,N/A,,Clear,230,2013-05-19 04:52:00
1:52 AM,52.0,46.9,83,30.30,10.0,SW,3.5,-,N/A,,Clear,220,2013-05-19 05:52:00
2:52 AM,46.0,43.0,89,30.31,7.0,Calm,Calm,-,N/A,,Clear,0,2013-05-19 06:52:00
3:07 AM,45.0,43.0,93,30.31,1.5,Calm,Calm,-,N/A,,Clear,0,2013-05-19 07:07:00
3:10 AM,45.0,43.0,93,30.31,0.8,Calm,Calm,-,N/A,,Clear,0,2013-05-19 07:10:00
3:26 AM,45.0,43.0,93,30.31,1.2,Calm,Calm,-,N/A,,Clear,0,2013-05-19 07:26:00
3:36 AM,45.0,43.0,93,30.31,2.0,Calm,Calm,-,N/A,,Clear,0,2013-05-19 07:36:00
4:02 AM,44.1,42.1,93,30.31,1.2,Calm,Calm,-,N/A,,Clear,0,2013-05-19 08:02:00
4:12 AM,44.1,41.0,89,30.31,2.0,Calm,Calm,-,N/A,,Clear,0,2013-05-19 08:12:00
4:41 AM,43.0,41.0,93,30.32,1.2,Calm,Calm,-,N/A,,Clear,0,2013-05-19 08:41:00
4:52 AM,43.0,41.0,93,30.32,0.5,Calm,Calm,-,N/A,Fog,Fog,0,2013-05-19 08:52:00
5:03 AM,43.0,41.0,93,30.32,1.8,Calm,Calm,-,N/A,,Clear,0,2013-05-19 09:03:00
5:05 AM,43.0,41.0,93,30.32,3.0,Calm,Calm,-,N/A,,Clear,0,2013-05-19 09:05:00
5:25 AM,43.0,41.0,93,30.32,1.8,Calm,Calm,-,N/A,,Clear,0,2013-05-19 09:25:00
5:37 AM,43.0,42.1,97,30.33,3.0,Calm,Calm,-,N/A,,Clear,0,2013-05-19 09:37:00
5:52 AM,44.1,42.1,93,30.33,8.0,Calm,Calm,-,N/A,,Clear,0,2013-05-19 09:52:00
6:52 AM,50.0,46.9,89,30.34,10.0,Calm,Calm,-,N/A,,Clear,0,2013-05-19 10:52:00
7:52 AM,60.1,48.9,67,30.35,10.0,WSW,4.6,-,N/A,,Clear,240,2013-05-19 11:52:00
8:52 AM,63.0,48.0,58,30.35,10.0,Variable,5.8,-,N/A,,Clear,0,2013-05-19 12:52:00
9:52 AM,66.9,48.0,51,30.35,10.0,West,8.1,-,N/A,,Clear,260,2013-05-19 13:52:00
10:52 AM,68.0,46.0,45,30.35,10.0,SSW,11.5,-,N/A,,Clear,210,2013-05-19 14:52:00
11:52 AM,70.0,46.0,42,30.34,10.0,SW,11.5,18.4,N/A,,Clear,220,2013-05-19 15:52:00
12:52 PM,70.0,46.0,42,30.33,10.0,SSW,10.4,19.6,N/A,,Clear,210,2013-05-19 16:52:00
1:52 PM,70.0,46.9,44,30.31,10.0,South,15.0,21.9,N/A,,Clear,190,2013-05-19 17:52:00
2:52 PM,70.0,46.9,44,30.29,10.0,SSW,10.4,16.1,N/A,,Clear,200,2013-05-19 18:52:00
3:52 PM,66.9,48.0,51,30.30,10.0,SW,15.0,20.7,N/A,,Clear,230,2013-05-19 19:52:00
4:52 PM,64.9,48.0,54,30.29,10.0,SW,11.5,-,N/A,,Partly Cloudy,220,2013-05-19 20:52:00
5:52 PM,61.0,50.0,67,30.30,10.0,SSW,9.2,-,0.00,Rain,Light Rain,210,2013-05-19 21:52:00
6:52 PM,59.0,51.1,75,30.30,10.0,Variable,5.8,-,0.00,Rain,Light Rain,0,2013-05-19 22:52:00
7:52 PM,57.0,53.1,87,30.29,10.0,Variable,5.8,-,0.01,Rain,Light Rain,0,2013-05-19 23:52:00
8:20 PM,55.9,53.1,90,30.29,9.0,Variable,3.5,-,0.00,Rain,Light Rain,0,2013-05-20 00:20:00
8:36 PM,55.9,54.0,93,30.29,9.0,SSE,3.5,-,0.01,Rain,Light Rain,150,2013-05-20 00:36:00
8:52 PM,55.9,53.1,90,30.30,6.0,SSE,5.8,-,0.03,Rain,Light Rain,150,2013-05-20 00:52:00
9:08 PM,55.9,54.0,93,30.29,6.0,SSE,4.6,-,0.02,Rain,Light Rain,150,2013-05-20 01:08:00
9:17 PM,55.9,54.0,93,30.29,5.0,SSE,4.6,-,0.02,Rain,Light Rain,160,2013-05-20 01:17:00
9:52 PM,55.9,54.0,93,30.28,4.0,Variable,5.8,-,0.05,Rain,Light Rain,0,2013-05-20 01:52:00
10:14 PM,55.9,54.0,93,30.27,7.0,SSE,4.6,-,0.00,Rain,Light Rain,150,2013-05-20 02:14:00
10:24 PM,55.9,54.0,93,30.27,10.0,SSE,3.5,-,0.00,,Overcast,150,2013-05-20 02:24:00
10:35 PM,55.9,54.0,93,30.27,10.0,SSE,4.6,-,0.00,,Overcast,150,2013-05-20 02:35:00
10:52 PM,55.9,54.0,93,30.26,3.0,SSE,4.6,-,0.00,Rain,Light Rain,150,2013-05-20 02:52:00
11:52 PM,55.9,54.0,93,30.24,5.0,SE,4.6,-,0.01,Rain,Light Rain,140,2013-05-20 03:52:00